Tracking 19709 objects as of 19-Jun-2019
HD Live streaming from Space Station
objects crossing your sky now

BREEZE-M R/B

Track BREEZE-M R/B now!


NORAD ID: 32301
Int'l Code: 2007-057C
Perigee: 6,950.4 km
Apogee: 35,347.0 km
Inclination: 17.3 °
Period: 757.2 minutes
Semi major axis: 27519 km
RCS: 9.668 m2 (large)
Launch date: November 17, 2007
Source: Commonwealth of Independent States (former USSR) (CIS)
Launch site: TYURATAM MISSILE AND SPACE COMPLEX (TTMTR)

Note: This is a ROCKET BODY
aabbcc
Your satellite tracking list
Your tracking list is empty




NASA's NSSDC Master Catalog

Two Line Element Set (TLE):
1 32301U 07057C   19169.54110726 -.00000146  00000-0  00000+0 0  9991
2 32301  17.2533 306.5823 5159332 135.7406 302.5967  1.90168375 80452
Source of the keplerian elements: AFSPC